EW9119 Weather Reports


time (UTC)temp
C
wind
direction
speed
KPH
gust
KPH
rain 1hr
cm
rain 24hr
cm
rain mn
cm
humidity
%
barometer
mb
20260507014547 19 230 0.0 0.0 0.03 0.08 0.08 1 1009.3
20260507013033 19 230 0.0 0.0 0.03 0.08 0.08 1 1008.8
20260507011532 19 230 0.0 0.0 0.05 0.05 0.05 1 1009.0
20260507010029 19 230 0.0 0.0 0.05 0.05 0.05 1 1009.2
20260507004523 20 230 0.0 0.0 0.05 0.05 0.05 1 1009.2
20260507003019 20 230 0.0 0.0 0.05 0.05 0.05 10 1009.2
20260507001521 20 230 0.0 0.0 0.00 0.00 0.00 17 1009.0
20260507000009 20 230 0.0 0.0 0.00 0.00 0.00 22 1009.1
20260506234503 20 24 0.0 0.0 0.00 0.00 0.00 30 1008.4
20260506233124 21 344 0.0 0.0 0.00 0.00 0.00 37 1008.7
20260506231555 21 355 0.0 0.0 0.00 0.00 0.00 40 1008.8
20260506230052 21 20 0.0 0.0 0.00 0.00 0.00 42 1009.2
20260506224546 21 27 0.0 0.0 0.00 0.00 0.00 45 1009.4
20260506223041 21 273 0.0 0.0 0.00 0.00 0.00 47 1009.6
20260506221538 21 313 0.0 0.0 0.00 0.00 0.00 50 1009.4
20260506220036 22 337 0.0 0.0 0.00 0.00 0.00 54 1009.6
20260506214528 22 12 0.0 0.0 0.00 0.00 0.00 56 1009.2
20260506213024 22 336 0.0 0.0 0.00 0.00 0.00 55 1008.6
20260506211521 22 104 0.0 4.8 0.00 0.00 0.00 57 1008.5
20260506210015 22 319 0.0 0.0 0.00 0.00 0.00 56 1008.7
20260506204512 22 325 0.0 0.0 0.00 0.00 0.00 59 1008.9
20260506203009 22 140 0.0 0.0 0.00 0.00 0.00 56 1008.9
20260506201502 22 254 0.0 0.0 0.00 0.00 0.00 57 1009.3
20260506200058 22 259 0.0 0.0 0.00 0.00 0.00 57 1009.1
20260506194614 21 298 0.0 0.0 0.00 0.00 0.00 59 1009.2
20260506193057 21 183 0.0 0.0 0.00 0.00 0.00 50 1009.4
20260506191545 21 38 0.0 0.0 0.00 0.00 0.00 51 1009.4
20260506190041 21 87 0.0 0.0 0.00 0.00 0.00 32 1008.8
20260506184536 20 67 0.0 0.0 0.00 0.00 0.00 11 1009.2
20260506183031 20 103 0.0 0.0 0.00 0.00 0.00 1 1009.6
20260506181527 19 94 0.0 0.0 0.00 0.00 0.00 6 1010.0
20260506180024 20 339 0.0 0.0 0.00 0.00 0.00 10 1010.7
20260506174520 20 324 0.0 0.0 0.00 0.00 0.00 26 1011.1
20260506173020 20 342 0.0 0.0 0.00 0.00 0.00 44 1011.4
20260506171522 20 142 0.0 0.0 0.00 0.00 0.00 37 1011.3
20260506170020 19 5 0.0 0.0 0.00 0.00 0.00 32 1011.5
20260506164515 19 167 0.0 0.0 0.00 0.00 0.00 38 1011.7
20260506163030 19 157 0.0 0.0 0.00 0.00 0.00 36 1011.5
20260506161511 19 5 0.0 0.0 0.00 0.00 0.00 34 1011.4
20260506160018 18 173 0.0 0.0 0.00 0.00 0.00 47 1011.3
20260506154509 18 220 0.0 0.0 0.00 0.00 0.00 37 1010.8
20260506153008 18 12 0.0 0.0 0.00 0.00 0.00 39 1010.9
20260506151505 18 340 0.0 0.0 0.00 0.00 0.00 49 1011.1
20260506150007 18 73 0.0 0.0 0.00 0.00 0.00 57 1011.0
20260506144502 18 70 0.0 0.0 0.00 0.00 0.00 58 1010.6
20260506143002 18 311 0.0 0.0 0.00 0.00 0.00 59 1010.9
20260506141501 18 299 0.0 0.0 0.00 0.00 0.00 60 1010.8
20260506140001 18 18 0.0 0.0 0.00 0.00 0.00 57 1010.6
20260506134600 17 321 0.0 0.0 0.00 0.00 0.00 56 1010.6
20260506133100 17 250 0.0 0.0 0.00 0.00 0.00 54 1010.9
20260506131604 17 109 0.0 0.0 0.00 0.00 0.00 54 1010.9
20260506124559 17 192 0.0 0.0 0.00 0.00 0.00 54 1010.7
20260506123058 17 360 0.0 1.6 0.00 0.00 0.00 54 1011.1
20260506121557 16 355 0.0 0.0 0.00 0.00 0.00 53 1011.1
20260506120100 16 351 0.0 1.6 0.00 0.00 0.00 53 1010.7
20260506114605 16 108 0.0 1.6 0.00 0.00 0.00 51 1010.6
20260506113055 16 34 0.0 0.0 0.00 0.00 0.00 51 1010.4
20260506111655 16 5 0.0 0.0 0.00 0.00 0.00 52 1010.4
20260506110101 16 5 0.0 0.0 0.00 0.00 0.00 53 1010.2
20260506104552 16 17 0.0 1.6 0.00 0.00 0.00 54 1009.8
20260506103051 16 277 0.0 0.0 0.00 0.00 0.00 54 1010.0
20260506101601 16 309 0.0 1.6 0.00 0.00 0.00 53 1010.0
20260506100050 16 290 0.0 0.0 0.00 0.00 0.00 52 1009.9
20260506094607 16 36 0.0 0.0 0.00 0.00 0.00 52 1009.9
20260506093053 16 69 0.0 0.0 0.00 0.00 0.00 52 1010.1
20260506091547 16 13 0.0 0.0 0.00 0.00 0.00 53 1010.2
20260506090046 16 52 0.0 0.0 0.00 0.00 0.00 52 1010.2
20260506084546 16 80 0.0 0.0 0.00 0.00 0.00 54 1010.5
20260506083042 16 13 0.0 0.0 0.00 0.00 0.00 55 1010.5
20260506081541 17 19 0.0 0.0 0.00 0.00 0.00 55 1010.6
20260506073044 17 141 0.0 0.0 0.00 0.00 0.00 58 1010.5
20260506071539 17 98 0.0 0.0 0.00 0.00 0.00 59 1010.4
20260506061535 17 101 0.0 0.0 0.00 0.00 0.00 64 1010.8
20260506044527 18 153 0.0 0.0 0.00 0.00 0.00 61 1011.2
20260506043020 18 67 0.0 0.0 0.00 0.00 0.00 60 1011.1
20260506041520 18 144 0.0 0.0 0.00 0.00 0.00 60 1011.3
20260506040038 18 140 0.0 0.0 0.00 0.00 0.00 60 1011.1
20260506034517 18 102 0.0 0.0 0.00 0.00 0.00 59 1011.0
20260506033016 18 103 0.0 0.0 0.00 0.00 0.00 58 1011.0
20260506031530 18 32 0.0 0.0 0.00 0.00 0.00 59 1011.0
20260506030015 18 14 0.0 0.0 0.00 0.00 0.00 59 1011.2
20260506024519 18 136 0.0 0.0 0.00 0.00 0.00 59 1011.3
20260506023014 18 143 0.0 0.0 0.00 0.00 0.00 58 1011.4
20260506021514 18 144 0.0 0.0 0.00 0.00 0.00 57 1011.4
20260506020017 19 144 0.0 0.0 0.00 0.00 0.00 55 1011.5